SPOT 7

Satellite information

Favourite Embed

Satellite Type and Status

PAYLOADIN ORBIT

Key statistics

Satellite SPOT 7 at a glance.

Uptime

4026

Days in orbit

Revolutions

≈ 14.6

Per day

Orbit

SSO

Sun Synchronous Orbit

Inclination

98.1

Latest

Satellite identification and parameters

Extended collection of information and parameters for SPOT 7.

Object identification

Identified? True

Debris? False

Object name: SPOT 7

International designator: 2014-034A

Object number (NORAD): 40053

Object ID (CCSDS): 40053

Country: AZERBAIJAN (AZER)

Current information (Y/N): Y

RCS size: LARGE

Orbital parameters

Period: 98.597 minutes

Inclination: 98.1108 deg

SMA: 7069.748 km

Apoapsis: 692.479 km

Periapsis: 690.748 km

RAAN: 254.4409 deg

Eccentricy: 0.0001224

Argument of periapsis: 102.5113 deg

Mean anomaly: 257.6225 deg

Mean motion: 14.60484101 rev/day

Mean motion (dot): 0.00000339 rev/day2

B* drag term: 0.000079289 1/REarth

Two-line elements (TLE)

Creation date: July 8, 2025, 2:27 a.m.

Reference frame: TEME

Reference center: EARTH

Epoch: July 7, 2025, 9:41 p.m. UTC

TLE line 0: 0 SPOT 7

TLE line 1: 1 40053U 14034A 25188.90365102 .00000339 00000-0 79289-4 0 9998

TLE line 2: 2 40053 98.1108 254.4409 0001224 102.5113 257.6225 14.60484101586873

Live tracking on map

Real-time ground track for satellite SPOT 7.

In-orbit conjunctions

There are no conjunctions computed for SPOT 7, at the moment. Check back to stay up to date, as we update our databases every day.

Go to all conjunctions

Associated space launch

SPOT 7 was lifted into orbit during the mission ‘PSLV-CA | SPOT-7, CanX-4, CanX-5, AISat, VELOX-I’, on board a PSLV space rocket.

The launch took place on June 30, 2014, 4:22 a.m. from Satish Dhawan Space Centre First Launch Pad.

For more information about the launch, click the button.

Launch to space PSLV-CA | SPOT-7, CanX-4, CanX-5, AISat, VELOX-I
PSLV-CA | SPOT-7, CanX-4, CanX-5, AISat, VELOX-I

Agency: N/A

Status: Launch Successful

Launch date: June 30, 2014, 4:22 a.m. UTC

Rocket: PSLV

Launch pad: Satish Dhawan Space Centre First Launch Pad

Location: Satish Dhawan Space Centre, India

...

Latest news about this satellite

There are no fresh news available about this satellite. Check back as we update our databases every day.


Newsletter sign-up

Weekly statistics, charts and insights to help you stay on top of the space industry.